QPF
0.02 0.02 0.03 0.01 0.01 0.02 0.02 0.01 0.02 0.03 0.04 0.03 0.05 0.09 0.08 0.11 0.13 0.16 0.08 0.08 0.07 0.07 0.07 0.05 0.05 0.06 0.06 0.05 0.04 0.03 0.02 0.02 0.02 0.01 0.01 0.00 0.00 0.00 0.00 0.00 0.01 0.01 0.01
0.01 0.01 0.01 0.01 0.01 0.01 0.01 0.00 0.01 0.01 0.01 0.02 0.03 0.05 0.05 0.06 0.07 0.08 0.07 0.06 0.06 0.07 0.08 0.08 0.08 0.08 0.07 0.07 0.08 0.07 0.05 0.05 0.03 0.02 0.01 0.01 0.01 0.01 0.01 0.01 0.00 0.00 0.00
0.02 0.01 0.01 0.01 0.00 0.00 0.00 0.00 0.00 0.01 0.01 0.01 0.03 0.04 0.04 0.04 0.06 0.05 0.05 0.04 0.03 0.04 0.06 0.07 0.09 0.09 0.09 0.09 0.08 0.08 0.07 0.07 0.06 0.04 0.03 0.02 0.02 0.01 0.01 0.01 0.01 0.00 0.00
0.02 0.01 0.01 0.01 0.00 0.01 0.00 0.00 0.00 0.00 0.00 0.01 0.02 0.03 0.04 0.04 0.05 0.04 0.03 0.02 0.03 0.03 0.04 0.05 0.06 0.08 0.10 0.10 0.09 0.10 0.12 0.08 0.06 0.05 0.05 0.03 0.02 0.02 0.02 0.01 0.01 0.01 0.00
0.02 0.01 0.01 0.00 0.00 0.00 0.00 0.00 0.00 0.00 0.00 0.01 0.01 0.02 0.02 0.03 0.03 0.02 0.02 0.02 0.02 0.03 0.03 0.03 0.05 0.07 0.09 0.11 0.12 0.12 0.12 0.11 0.10 0.09 0.09 0.08 0.06 0.04 0.03 0.03 0.02 0.01 0.01
0.02 0.01 0.00 0.00 0.00 0.00 0.00 0.00 0.00 0.00 0.00 0.01 0.02 0.02 0.02 0.02 0.03 0.02 0.02 0.02 0.01 0.02 0.03 0.03 0.03 0.05 0.07 0.09 0.11 0.13 0.14 0.12 0.11 0.11 0.12 0.12 0.11 0.08 0.04 0.04 0.03 0.02 0.02
0.02 0.01 0.00 0.00 0.00 0.00 0.00 0.00 0.00 0.00 0.00 0.00 0.01 0.01 0.01 0.02 0.02 0.02 0.01 0.01 0.02 0.02 0.03 0.03 0.03 0.03 0.03 0.05 0.07 0.10 0.13 0.14 0.13 0.12 0.13 0.14 0.14 0.11 0.08 0.07 0.06 0.04 0.03
0.02 0.01 0.00 0.00 0.00 0.00 0.00 0.00 0.00 0.00 0.00 0.00 0.00 0.00 0.01 0.02 0.02 0.01 0.01 0.02 0.02 0.01 0.01 0.02 0.02 0.02 0.03 0.03 0.03 0.06 0.10 0.12 0.13 0.13 0.12 0.12 0.12 0.11 0.10 0.10 0.09 0.06 0.05
0.01 0.00 0.00 0.00 0.00 0.00 0.00 0.00 0.00 0.00 0.00 0.00 0.00 0.00 0.00 0.01 0.01 0.01 0.01 0.01 0.01 0.01 0.01 0.01 0.01 0.01 0.02 0.02 0.02 0.03 0.05 0.05 0.07 0.11 0.11 0.10 0.09 0.08 0.09 0.10 0.10 0.08 0.05
0.00 0.00 0.00 0.00 0.00 0.00 0.00 0.00 0.00 0.00 0.00 0.00 0.00 0.00 0.00 0.00 0.00 0.00 0.00 0.01 0.00 0.00 0.00 0.00 0.00 0.00 0.01 0.01 0.01 0.01 0.01 0.02 0.03 0.06 0.09 0.10 0.09 0.07 0.07 0.08 0.09 0.11 0.09
0.01 0.00 0.00 0.00 0.00 0.00 0.00 0.00 0.00 0.00 0.00 0.00 0.00 0.00 0.00 0.00 0.00 0.00 0.00 0.00 0.00 0.00 0.00 0.00 0.00 0.00 0.00 0.00 0.00 0.00 0.00 0.00 0.01 0.02 0.04 0.07 0.08 0.09 0.09 0.09 0.09 0.13 0.14
0.02 0.01 0.01 0.00 0.00 0.00 0.00 0.00 0.00 0.00 0.00 0.00 0.00 0.00 0.00 0.00 0.00 0.00 0.00 0.00 0.00 0.00 0.00 0.00 0.00 0.00 0.00 0.00 0.00 0.00 0.00 0.00 0.00 0.00 0.01 0.02 0.04 0.06 0.08 0.09 0.10 0.13 0.15
0.02 0.02 0.02 0.01 0.00 0.00 0.00 0.00 0.00 0.00 0.00 0.00 0.00 0.00 0.00 0.00 0.00 0.00 0.00 0.00 0.00 0.00 0.00 0.00 0.00 0.00 0.00 0.00 0.00 0.00 0.00 0.00 0.00 0.00 0.00 0.01 0.01 0.02 0.04 0.06 0.07 0.09 0.11
0.01 0.02 0.02 0.02 0.01 0.00 0.00 0.00 0.00 0.00 0.00 0.00 0.00 0.00 0.00 0.00 0.00 0.00 0.00 0.00 0.00 0.00 0.00 0.00 0.00 0.00 0.00 0.00 0.00 0.00 0.00 0.00 0.00 0.00 0.00 0.00 0.00 0.00 0.01 0.02 0.03 0.04 0.06
0.03 0.03 0.03 0.03 0.01 0.00 0.00 0.00 0.00 0.00 0.00 0.00 0.00 0.00 0.00 0.00 0.00 0.00 0.00 0.00 0.00 0.00 0.00 0.00 0.00 0.00 0.00 0.00 0.00 0.00 0.00 0.00 0.00 0.00 0.00 0.00 0.00 0.00 0.00 0.00 0.00 0.01 0.02
0.02 0.03 0.03 0.03 0.02 0.01 0.00 0.00 0.00 0.00 0.00 0.00 0.00 0.00 0.00 0.00 0.00 0.00 0.00 0.00 0.00 0.00 0.00 0.00 0.00 0.00 0.00 0.00 0.00 0.00 0.00 0.00 0.00 0.00 0.00 0.00 0.00 0.00 0.00 0.00 0.00 0.00 0.00
0.01 0.02 0.03 0.02 0.02 0.01 0.01 0.00 0.00 0.00 0.00 0.00 0.00 0.00 0.00 0.00 0.00 0.00 0.00 0.00 0.00 0.00 0.00 0.00 0.00 0.00 0.00 0.00 0.00 0.00 0.00 0.00 0.00 0.00 0.00 0.00 0.00 0.00 0.00 0.00 0.00 0.00 0.00
0.01 0.02 0.02 0.01 0.01 0.01 0.00 0.00 0.00 0.00 0.00 0.00 0.00 0.00 0.00 0.00 0.00 0.00 0.00 0.00 0.00 0.00 0.00 0.00 0.00 0.00 0.00 0.00 0.00 0.00 0.00 0.00 0.00 0.00 0.00 0.00 0.00 0.00 0.00 0.00 0.00 0.00 0.00
0.02 0.02 0.01 0.01 0.01 0.00 0.00 0.00 0.00 0.00 0.00 0.00 0.00 0.00 0.00 0.00 0.00 0.00 0.00 0.00 0.00 0.00 0.00 0.00 0.00 0.00 0.00 0.00 0.00 0.00 0.00 0.00 0.00 0.00 0.00 0.00 0.00 0.00 0.00 0.00 0.00 0.00 0.00
0.03 0.02 0.01 0.01 0.01 0.01 0.00 0.00 0.00 0.00 0.00 0.00 0.00 0.00 0.00 0.00 0.00 0.00 0.00 0.00 0.00 0.00 0.00 0.00 0.00 0.00 0.00 0.00 0.00 0.00 0.00 0.00 0.00 0.00 0.00 0.00 0.00 0.00 0.00 0.00 0.00 0.00 0.00
0.06 0.06 0.04 0.04 0.04 0.03 0.01 0.01 0.01 0.01 0.01 0.01 0.01 0.01 0.01 0.01 0.00 0.00 0.00 0.00 0.00 0.00 0.00 0.00 0.00 0.00 0.00 0.00 0.00 0.00 0.00 0.00 0.00 0.00 0.00 0.00 0.00 0.00 0.00 0.00 0.00 0.00 0.00
0.12 0.13 0.11 0.10 0.10 0.07 0.04 0.02 0.02 0.01 0.01 0.01 0.01 0.01 0.01 0.00 0.00 0.00 0.00 0.00 0.00 0.00 0.00 0.00 0.00 0.00 0.00 0.00 0.00 0.00 0.00 0.00 0.00 0.00 0.00 0.00 0.00 0.00 0.00 0.00 0.00 0.00 0.00
0.14 0.16 0.17 0.15 0.13 0.10 0.09 0.07 0.05 0.03 0.02 0.01 0.01 0.01 0.01 0.01 0.01 0.01 0.01 0.01 0.00 0.00 0.00 0.00 0.00 0.00 0.00 0.00 0.00 0.00 0.00 0.00 0.00 0.00 0.00 0.00 0.00 0.00 0.00 0.00 0.00 0.00 0.00
0.11 0.13 0.14 0.16 0.16 0.15 0.14 0.12 0.09 0.06 0.03 0.01 0.01 0.01 0.01 0.01 0.01 0.02 0.01 0.01 0.00 0.00 0.00 0.00 0.00 0.00 0.00 0.00 0.00 0.00 0.00 0.00 0.00 0.00 0.00 0.00 0.00 0.00 0.00 0.00 0.00 0.00 0.00
0.16 0.17 0.19 0.20 0.18 0.16 0.16 0.14 0.10 0.07 0.04 0.02 0.01 0.01 0.01 0.01 0.01 0.01 0.01 0.01 0.00 0.00 0.01 0.01 0.01 0.00 0.00 0.00 0.00 0.01 0.00 0.00 0.00 0.00 0.00 0.00 0.00 0.00 0.00 0.00 0.00 0.00 0.00
0.16 0.16 0.18 0.17 0.14 0.12 0.13 0.13 0.10 0.08 0.06 0.04 0.03 0.02 0.02 0.01 0.01 0.01 0.01 0.01 0.01 0.01 0.01 0.01 0.01 0.00 0.00 0.00 0.00 0.00 0.00 0.00 0.00 0.00 0.00 0.00 0.00 0.00 0.00 0.00 0.00 0.00 0.00
MSLP
1017.20 1017.43 1017.54 1017.59 1017.61 1017.65 1017.73 1017.85 1018.00 1018.15 1018.28 1018.36 1018.40 1018.40 1018.38 1018.38 1018.41 1018.48 1018.61 1018.77 1018.94 1019.12 1019.28 1019.41 1019.51 1019.60 1019.68 1019.76 1019.85 1019.95 1020.07 1020.20 1020.34 1020.49 1020.66 1020.83 1021.01 1021.19 1021.36 1021.52 1021.66 1021.79 1021.91
1016.98 1017.22 1017.38 1017.48 1017.56 1017.64 1017.76 1017.91 1018.07 1018.23 1018.37 1018.46 1018.51 1018.52 1018.51 1018.50 1018.50 1018.55 1018.64 1018.76 1018.91 1019.07 1019.23 1019.38 1019.51 1019.62 1019.71 1019.79 1019.87 1019.95 1020.03 1020.13 1020.25 1020.39 1020.55 1020.74 1020.94 1021.14 1021.33 1021.51 1021.66 1021.79 1021.90
1016.68 1016.95 1017.16 1017.32 1017.48 1017.64 1017.81 1018.00 1018.19 1018.37 1018.51 1018.62 1018.67 1018.69 1018.67 1018.65 1018.64 1018.65 1018.69 1018.76 1018.87 1019.00 1019.14 1019.29 1019.43 1019.56 1019.67 1019.76 1019.84 1019.90 1019.96 1020.03 1020.12 1020.24 1020.39 1020.58 1020.79 1021.01 1021.22 1021.41 1021.57 1021.72 1021.84
1016.36 1016.64 1016.91 1017.17 1017.41 1017.66 1017.91 1018.15 1018.37 1018.56 1018.72 1018.82 1018.89 1018.91 1018.90 1018.87 1018.83 1018.80 1018.79 1018.80 1018.85 1018.92 1019.03 1019.15 1019.29 1019.42 1019.55 1019.65 1019.73 1019.78 1019.83 1019.88 1019.94 1020.04 1020.17 1020.35 1020.55 1020.78 1021.00 1021.21 1021.39 1021.55 1021.69
1016.05 1016.36 1016.69 1017.04 1017.38 1017.73 1018.05 1018.34 1018.60 1018.81 1018.97 1019.08 1019.16 1019.19 1019.19 1019.15 1019.10 1019.03 1018.96 1018.91 1018.87 1018.87 1018.91 1018.99 1019.10 1019.23 1019.35 1019.46 1019.55 1019.61 1019.65 1019.68 1019.72 1019.79 1019.90 1020.05 1020.24 1020.45 1020.68 1020.89 1021.09 1021.27 1021.43
1015.81 1016.14 1016.53 1016.96 1017.40 1017.83 1018.23 1018.57 1018.85 1019.07 1019.24 1019.37 1019.46 1019.51 1019.53 1019.51 1019.45 1019.36 1019.24 1019.11 1018.99 1018.90 1018.85 1018.86 1018.92 1019.01 1019.12 1019.23 1019.32 1019.39 1019.42 1019.45 1019.47 1019.51 1019.59 1019.71 1019.86 1020.05 1020.26 1020.47 1020.67 1020.87 1021.06
1015.64 1015.99 1016.43 1016.94 1017.46 1017.96 1018.42 1018.79 1019.09 1019.32 1019.50 1019.64 1019.76 1019.85 1019.91 1019.92 1019.88 1019.78 1019.62 1019.42 1019.21 1019.02 1018.88 1018.79 1018.78 1018.82 1018.90 1019.00 1019.09 1019.15 1019.19 1019.20 1019.21 1019.22 1019.26 1019.34 1019.45 1019.60 1019.78 1019.98 1020.18 1020.38 1020.60
1015.56 1015.92 1016.40 1016.96 1017.54 1018.10 1018.58 1018.98 1019.29 1019.52 1019.71 1019.88 1020.04 1020.18 1020.30 1020.37 1020.36 1020.27 1020.09 1019.85 1019.56 1019.27 1019.02 1018.83 1018.73 1018.70 1018.73 1018.80 1018.88 1018.94 1018.97 1018.97 1018.96 1018.95 1018.95 1018.98 1019.05 1019.15 1019.29 1019.45 1019.64 1019.84 1020.06
1015.56 1015.92 1016.43 1017.02 1017.63 1018.21 1018.70 1019.10 1019.40 1019.64 1019.84 1020.04 1020.25 1020.46 1020.65 1020.80 1020.85 1020.80 1020.62 1020.35 1020.00 1019.62 1019.27 1018.99 1018.79 1018.68 1018.65 1018.67 1018.72 1018.76 1018.78 1018.77 1018.74 1018.69 1018.66 1018.65 1018.67 1018.73 1018.82 1018.95 1019.11 1019.29 1019.51
1015.60 1015.98 1016.50 1017.10 1017.71 1018.28 1018.76 1019.14 1019.43 1019.67 1019.88 1020.11 1020.37 1020.66 1020.94 1021.16 1021.30 1021.29 1021.14 1020.86 1020.47 1020.04 1019.61 1019.24 1018.95 1018.76 1018.66 1018.63 1018.63 1018.64 1018.63 1018.59 1018.54 1018.47 1018.40 1018.35 1018.33 1018.35 1018.40 1018.49 1018.62 1018.78 1018.97
1015.67 1016.05 1016.57 1017.17 1017.77 1018.31 1018.76 1019.11 1019.38 1019.60 1019.83 1020.09 1020.40 1020.76 1021.11 1021.42 1021.63 1021.69 1021.58 1021.31 1020.92 1020.46 1019.98 1019.54 1019.18 1018.92 1018.75 1018.65 1018.60 1018.56 1018.51 1018.44 1018.35 1018.25 1018.16 1018.08 1018.03 1018.02 1018.05 1018.11 1018.20 1018.32 1018.48
1015.73 1016.13 1016.65 1017.22 1017.79 1018.30 1018.72 1019.03 1019.27 1019.48 1019.71 1019.99 1020.34 1020.75 1021.16 1021.54 1021.81 1021.93 1021.87 1021.64 1021.27 1020.81 1020.32 1019.85 1019.44 1019.12 1018.89 1018.73 1018.61 1018.51 1018.41 1018.29 1018.16 1018.04 1017.92 1017.82 1017.76 1017.73 1017.74 1017.78 1017.84 1017.94 1018.06
1015.77 1016.19 1016.70 1017.26 1017.80 1018.27 1018.64 1018.92 1019.13 1019.32 1019.55 1019.84 1020.20 1020.63 1021.09 1021.50 1021.82 1021.99 1021.99 1021.81 1021.48 1021.06 1020.58 1020.12 1019.70 1019.35 1019.07 1018.84 1018.65 1018.48 1018.32 1018.14 1017.97 1017.81 1017.67 1017.56 1017.50 1017.47 1017.47 1017.50 1017.55 1017.62 1017.70
1015.78 1016.21 1016.73 1017.27 1017.78 1018.21 1018.55 1018.80 1018.99 1019.16 1019.37 1019.65 1020.02 1020.44 1020.90 1021.33 1021.67 1021.88 1021.92 1021.80 1021.53 1021.17 1020.75 1020.32 1019.92 1019.56 1019.25 1018.98 1018.72 1018.48 1018.24 1018.00 1017.77 1017.57 1017.41 1017.29 1017.23 1017.20 1017.22 1017.25 1017.30 1017.35 1017.41
1015.74 1016.20 1016.71 1017.24 1017.73 1018.14 1018.46 1018.69 1018.86 1019.02 1019.21 1019.47 1019.80 1020.20 1020.63 1021.04 1021.38 1021.60 1021.68 1021.62 1021.44 1021.15 1020.82 1020.46 1020.10 1019.76 1019.44 1019.13 1018.82 1018.50 1018.19 1017.88 1017.59 1017.34 1017.15 1017.02 1016.96 1016.94 1016.97 1017.01 1017.06 1017.11 1017.15
1015.65 1016.13 1016.65 1017.17 1017.65 1018.05 1018.36 1018.58 1018.74 1018.89 1019.06 1019.29 1019.58 1019.93 1020.31 1020.68 1021.00 1021.22 1021.33 1021.33 1021.22 1021.03 1020.79 1020.52 1020.23 1019.93 1019.62 1019.29 1018.94 1018.56 1018.17 1017.79 1017.44 1017.14 1016.92 1016.77 1016.70 1016.68 1016.72 1016.77 1016.83 1016.87 1016.91
1015.50 1016.00 1016.53 1017.05 1017.53 1017.92 1018.23 1018.45 1018.62 1018.76 1018.91 1019.10 1019.35 1019.64 1019.96 1020.28 1020.56 1020.77 1020.90 1020.95 1020.92 1020.83 1020.70 1020.52 1020.31 1020.07 1019.79 1019.46 1019.08 1018.66 1018.21 1017.77 1017.36 1017.00 1016.74 1016.56 1016.46 1016.44 1016.47 1016.52 1016.58 1016.63 1016.66
1015.29 1015.81 1016.35 1016.87 1017.34 1017.74 1018.05 1018.28 1018.45 1018.59 1018.73 1018.90 1019.10 1019.34 1019.60 1019.86 1020.10 1020.29 1020.44 1020.53 1020.57 1020.57 1020.53 1020.45 1020.33 1020.15 1019.91 1019.59 1019.21 1018.76 1018.28 1017.79 1017.33 1016.94 1016.62 1016.41 1016.28 1016.23 1016.23 1016.26 1016.31 1016.34 1016.37
1015.05 1015.57 1016.10 1016.62 1017.09 1017.48 1017.80 1018.03 1018.21 1018.35 1018.49 1018.63 1018.80 1018.99 1019.20 1019.42 1019.62 1019.80 1019.95 1020.08 1020.17 1020.24 1020.28 1020.28 1020.24 1020.13 1019.93 1019.65 1019.28 1018.84 1018.35 1017.84 1017.35 1016.92 1016.57 1016.31 1016.14 1016.04 1016.00 1015.99 1016.00 1016.01 1016.02
1014.76 1015.28 1015.80 1016.30 1016.75 1017.14 1017.45 1017.68 1017.87 1018.01 1018.14 1018.27 1018.42 1018.58 1018.76 1018.94 1019.11 1019.28 1019.44 1019.58 1019.71 1019.83 1019.92 1019.99 1020.00 1019.95 1019.80 1019.57 1019.23 1018.82 1018.35 1017.85 1017.37 1016.92 1016.55 1016.25 1016.03 1015.88 1015.78 1015.71 1015.66 1015.63 1015.61
1014.43 1014.94 1015.44 1015.91 1016.34 1016.70 1017.00 1017.23 1017.40 1017.55 1017.68 1017.81 1017.94 1018.09 1018.25 1018.41 1018.57 1018.72 1018.87 1019.02 1019.16 1019.30 1019.43 1019.53 1019.58 1019.57 1019.47 1019.29 1019.01 1018.65 1018.23 1017.77 1017.32 1016.89 1016.51 1016.18 1015.92 1015.71 1015.54 1015.40 1015.29 1015.19 1015.12
1014.07 1014.56 1015.03 1015.47 1015.86 1016.18 1016.45 1016.66 1016.83 1016.97 1017.10 1017.23 1017.37 1017.51 1017.66 1017.82 1017.96 1018.11 1018.25 1018.39 1018.52 1018.65 1018.77 1018.88 1018.94 1018.96 1018.90 1018.77 1018.56 1018.27 1017.92 1017.54 1017.15 1016.76 1016.40 1016.07 1015.78 1015.52 1015.28 1015.07 1014.88 1014.71 1014.58
1013.69 1014.15 1014.58 1014.98 1015.32 1015.61 1015.84 1016.03 1016.18 1016.31 1016.44 1016.57 1016.71 1016.86 1017.02 1017.17 1017.31 1017.45 1017.57 1017.68 1017.78 1017.88 1017.98 1018.06 1018.11 1018.13 1018.10 1018.02 1017.87 1017.67 1017.41 1017.12 1016.81 1016.49 1016.17 1015.86 1015.56 1015.26 1014.98 1014.70 1014.44 1014.21 1014.01
1013.28 1013.71 1014.11 1014.46 1014.76 1015.00 1015.20 1015.36 1015.49 1015.61 1015.74 1015.88 1016.03 1016.19 1016.35 1016.51 1016.64 1016.76 1016.85 1016.93 1016.99 1017.03 1017.08 1017.11 1017.13 1017.14 1017.12 1017.07 1016.98 1016.85 1016.69 1016.49 1016.27 1016.04 1015.78 1015.51 1015.22 1014.93 1014.61 1014.30 1013.99 1013.70 1013.45
1012.86 1013.26 1013.62 1013.94 1014.20 1014.41 1014.58 1014.71 1014.83 1014.95 1015.08 1015.22 1015.38 1015.55 1015.72 1015.87 1016.00 1016.09 1016.15 1016.18 1016.18 1016.17 1016.15 1016.12 1016.10 1016.07 1016.04 1016.00 1015.95 1015.89 1015.80 1015.69 1015.56 1015.41 1015.23 1015.01 1014.77 1014.49 1014.18 1013.85 1013.52 1013.20 1012.92
1012.45 1012.82 1013.15 1013.44 1013.68 1013.87 1014.02 1014.14 1014.26 1014.37 1014.51 1014.66 1014.82 1015.00 1015.17 1015.31 1015.43 1015.50 1015.52 1015.50 1015.45 1015.37 1015.27 1015.18 1015.10 1015.02 1014.96 1014.92 1014.88 1014.85 1014.82 1014.77 1014.72 1014.63 1014.52 1014.37 1014.17 1013.93 1013.66 1013.35 1013.03 1012.71 1012.43
Thickness
5752 5750 5748 5746 5744 5743 5741 5739 5737 5736 5734 5734 5733 5733 5732 5731 5731 5730 5730 5729 5729 5728 5727 5725 5724 5723 5722 5720 5720 5719 5719 5718 5717 5716 5716 5716 5715 5715 5714 5714 5713 5712 5711
5751 5749 5747 5745 5743 5742 5740 5738 5736 5735 5733 5732 5732 5732 5731 5730 5730 5729 5729 5728 5727 5727 5726 5725 5723 5722 5721 5720 5719 5718 5717 5717 5716 5715 5714 5714 5714 5713 5713 5713 5712 5711 5711
5751 5748 5746 5744 5743 5741 5739 5737 5735 5733 5732 5731 5730 5730 5730 5730 5729 5729 5728 5727 5727 5726 5725 5724 5723 5721 5720 5719 5718 5717 5716 5715 5714 5713 5713 5712 5712 5711 5711 5711 5711 5710 5710
5750 5747 5745 5743 5742 5740 5738 5736 5734 5731 5729 5729 5728 5729 5729 5729 5729 5728 5728 5727 5726 5725 5724 5723 5723 5721 5720 5718 5717 5716 5715 5714 5713 5712 5711 5711 5710 5710 5709 5709 5709 5709 5708
5748 5747 5744 5743 5741 5739 5737 5736 5732 5730 5728 5727 5728 5728 5729 5728 5728 5728 5727 5726 5726 5725 5724 5723 5722 5721 5719 5718 5717 5716 5714 5713 5712 5711 5710 5709 5709 5708 5708 5707 5707 5707 5707
5747 5745 5743 5741 5740 5737 5735 5733 5731 5730 5728 5728 5728 5728 5727 5728 5727 5727 5726 5726 5725 5724 5723 5722 5721 5720 5718 5717 5716 5715 5714 5713 5712 5711 5709 5708 5707 5707 5706 5706 5705 5705 5705
5746 5744 5742 5740 5738 5736 5734 5733 5731 5729 5727 5727 5724 5722 5724 5726 5726 5726 5726 5725 5724 5724 5723 5721 5719 5718 5717 5716 5715 5714 5713 5712 5711 5710 5708 5707 5706 5705 5705 5704 5704 5703 5703
5745 5743 5741 5739 5737 5735 5733 5731 5729 5726 5725 5725 5721 5715 5712 5715 5720 5724 5723 5723 5723 5722 5721 5720 5718 5716 5715 5714 5714 5713 5712 5710 5709 5708 5707 5706 5705 5705 5704 5703 5702 5702 5701
5744 5743 5740 5738 5736 5734 5731 5730 5728 5725 5722 5722 5722 5716 5709 5705 5709 5716 5718 5719 5720 5719 5719 5718 5716 5715 5714 5713 5712 5711 5710 5709 5707 5706 5705 5705 5704 5703 5703 5702 5701 5701 5700
5743 5742 5740 5737 5735 5733 5731 5730 5728 5726 5723 5719 5719 5718 5716 5713 5707 5705 5711 5714 5716 5716 5716 5716 5714 5713 5712 5710 5709 5708 5707 5706 5705 5704 5703 5703 5702 5701 5701 5700 5700 5699 5699
5741 5740 5738 5736 5734 5732 5731 5729 5727 5725 5723 5719 5717 5715 5714 5712 5709 5704 5700 5704 5709 5712 5713 5713 5712 5711 5710 5708 5706 5705 5704 5703 5702 5701 5701 5700 5699 5698 5698 5698 5698 5698 5697
5738 5738 5737 5735 5733 5731 5729 5728 5726 5724 5721 5719 5716 5714 5712 5709 5706 5703 5699 5698 5699 5705 5708 5709 5708 5707 5707 5705 5704 5702 5701 5700 5698 5697 5696 5696 5695 5695 5695 5695 5695 5695 5695
5735 5735 5735 5733 5731 5730 5728 5726 5724 5722 5720 5717 5714 5712 5711 5709 5707 5703 5699 5695 5695 5698 5701 5704 5704 5704 5703 5702 5700 5699 5697 5696 5695 5694 5693 5692 5692 5691 5691 5692 5691 5692 5692
5736 5735 5733 5732 5730 5728 5726 5724 5721 5719 5718 5715 5713 5711 5709 5707 5706 5704 5699 5694 5689 5689 5692 5695 5699 5700 5699 5698 5697 5695 5694 5693 5691 5690 5689 5689 5688 5688 5688 5688 5688 5688 5688
5735 5734 5732 5730 5728 5726 5724 5721 5718 5717 5715 5712 5710 5708 5706 5705 5704 5702 5699 5695 5688 5682 5682 5688 5691 5695 5694 5694 5693 5692 5691 5690 5688 5687 5686 5686 5685 5684 5684 5684 5684 5684 5684
5735 5732 5730 5728 5725 5723 5721 5718 5716 5714 5711 5709 5707 5705 5703 5702 5700 5698 5696 5693 5689 5683 5679 5683 5686 5689 5690 5690 5689 5688 5687 5686 5685 5684 5683 5683 5682 5681 5681 5680 5680 5680 5680
5733 5731 5728 5725 5723 5720 5718 5715 5712 5710 5707 5705 5703 5701 5699 5698 5696 5694 5692 5689 5686 5682 5677 5679 5682 5684 5684 5684 5684 5684 5683 5682 5682 5682 5681 5680 5679 5679 5678 5677 5676 5676 5676
5731 5729 5727 5723 5720 5717 5715 5712 5709 5707 5704 5701 5699 5697 5695 5694 5691 5689 5687 5684 5682 5680 5676 5673 5675 5677 5678 5679 5679 5679 5679 5679 5678 5678 5677 5677 5676 5675 5675 5674 5673 5672 5672
5729 5726 5723 5721 5718 5715 5712 5710 5707 5704 5701 5699 5697 5694 5692 5690 5687 5684 5682 5680 5678 5677 5674 5670 5669 5670 5671 5673 5672 5673 5674 5673 5673 5673 5673 5672 5672 5671 5671 5670 5669 5669 5668
5726 5723 5720 5718 5715 5713 5710 5707 5704 5701 5699 5697 5694 5692 5690 5687 5684 5681 5679 5676 5674 5671 5669 5666 5665 5664 5664 5666 5665 5664 5664 5665 5666 5668 5667 5667 5667 5666 5665 5665 5665 5664 5664
5723 5719 5716 5713 5710 5707 5705 5702 5700 5697 5694 5692 5690 5688 5687 5685 5682 5679 5677 5673 5670 5666 5663 5660 5659 5658 5657 5657 5656 5657 5656 5657 5658 5660 5660 5660 5660 5660 5660 5660 5660 5659 5659
5717 5714 5712 5709 5705 5704 5702 5698 5694 5691 5689 5686 5683 5682 5681 5680 5679 5676 5674 5672 5668 5663 5658 5655 5653 5652 5653 5653 5652 5651 5649 5647 5647 5652 5651 5652 5653 5653 5654 5654 5654 5654 5654
5713 5710 5707 5704 5701 5699 5696 5693 5689 5685 5682 5679 5678 5676 5675 5675 5673 5671 5669 5668 5665 5662 5659 5654 5651 5650 5650 5649 5647 5644 5642 5641 5642 5645 5642 5643 5645 5645 5648 5649 5649 5649 5649
5707 5704 5702 5699 5695 5693 5690 5687 5684 5679 5676 5674 5672 5670 5668 5667 5666 5663 5661 5660 5658 5656 5653 5650 5649 5649 5648 5647 5643 5641 5639 5637 5638 5638 5635 5634 5638 5639 5643 5643 5644 5644 5644
5701 5699 5696 5692 5689 5686 5683 5680 5676 5671 5668 5666 5665 5664 5661 5660 5659 5656 5653 5651 5650 5650 5649 5647 5645 5644 5643 5641 5637 5632 5629 5626 5629 5631 5629 5626 5631 5632 5634 5636 5638 5638 5638
5694 5691 5689 5687 5683 5679 5676 5673 5669 5664 5661 5659 5657 5656 5654 5652 5651 5648 5644 5642 5639 5640 5639 5638 5637 5636 5634 5633 5630 5626 5624 5620 5620 5622 5625 5620 5622 5621 5622 5628 5630 5630 5630